CST,Max TemperatureF,Mean TemperatureF,Min TemperatureF,Max Dew PointF,MeanDew PointF,Min DewpointF,Max Humidity, Mean Humidity, Min Humidity, Max Sea Level PressureIn, Mean Sea Level PressureIn, Min Sea Level PressureIn, Max VisibilityMiles, Mean VisibilityMiles, Min VisibilityMiles, Max Wind SpeedMPH, Mean Wind SpeedMPH, Max Gust SpeedMPH,PrecipitationIn, CloudCover, Events, WindDirDegrees
2013-12-1,63,48,33,32,29,26,76,51,25,30.10,30.01,29.86,10,10,10,12,4,13,0.00,0,,279
2013-12-2,68,50,32,33,29,26,75,49,22,29.83,29.69,29.52,10,10,10,16,9,22,0.00,0,,230
2013-12-3,74,55,35,30,26,19,70,42,14,29.56,29.45,29.35,10,10,9,31,12,39,0.00,1,,244
2013-12-4,35,27,18,30,16,3,85,65,45,30.17,29.82,29.56,10,10,6,29,18,36,0.00,8,,356
2013-12-5,18,15,11,7,5,0,76,65,53,30.35,30.25,30.15,10,7,2,23,12,29,0.02,8,Snow,20
2013-12-6,16,11,5,5,3,-1,83,74,64,30.59,30.44,30.23,10,10,5,14,8,17,T,6,Snow,41
2013-12-7,17,13,8,10,1,-4,69,61,53,30.58,30.37,30.06,10,10,9,20,11,26,T,8,,146
2013-12-8,41,26,10,25,16,8,92,72,51,30.19,29.94,29.77,10,10,10,25,12,33,0.00,3,,256
2013-12-9,23,16,8,11,5,1,84,63,41,30.40,30.30,30.17,10,10,10,14,6,17,0.00,4,,10
2013-12-10,56,32,8,10,6,-7,80,44,8,30.35,30.23,29.99,10,10,10,31,12,37,0.00,0,,209
2013-12-11,38,29,19,17,14,13,77,61,44,30.60,30.53,30.35,10,10,10,17,9,22,0.00,0,,139
2013-12-12,57,37,16,23,16,11,74,47,19,30.46,30.24,29.94,10,10,10,25,11,30,0.00,0,,196
2013-12-13,52,40,27,31,22,16,92,59,26,29.99,29.81,29.69,10,10,10,21,10,27,0.00,0,,314
2013-12-14,50,38,26,26,19,15,75,51,27,30.29,30.22,30.04,10,10,10,25,15,30,0.00,0,,324
2013-12-15,62,41,19,21,16,13,77,47,16,30.25,30.17,30.09,10,10,10,13,5,14,0.00,0,,241
2013-12-16,65,46,26,18,17,16,63,39,15,30.19,30.12,30.06,10,10,10,15,7,18,0.00,0,,232
2013-12-17,60,43,26,21,19,17,63,42,21,30.35,30.25,30.17,10,10,10,17,7,20,0.00,0,,277
2013-12-18,67,48,29,21,19,17,68,42,15,30.15,29.86,29.63,10,10,10,28,13,34,0.00,0,,212
2013-12-19,64,47,30,27,22,19,75,49,22,29.79,29.59,29.46,10,10,10,28,7,36,0.00,1,,8
2013-12-20,30,24,18,21,15,10,84,67,50,30.00,29.87,29.77,10,10,10,25,10,33,0.00,3,,35
2013-12-21,28,24,19,21,19,12,88,73,58,29.90,29.65,29.56,10,4,0,14,7,18,0.29,7,Fog-Snow,14
2013-12-22,36,27,17,23,16,11,77,67,56,30.25,30.15,29.93,10,10,10,14,9,15,0.00,2,,272
2013-12-23,26,21,15,18,15,12,92,80,68,30.56,30.40,30.20,10,7,2,25,13,30,T,6,,237
2013-12-24,48,31,13,32,23,10,88,69,50,30.40,30.18,30.00,10,10,9,21,9,27,0.00,1,,197
2013-12-25,48,37,26,33,23,16,85,57,28,30.45,30.38,30.28,10,10,10,15,9,20,0.00,1,,329
2013-12-26,56,42,27,25,22,20,72,48,24,30.35,30.27,30.19,10,10,10,16,7,20,0.00,0,,225
2013-12-27,59,43,27,26,22,18,75,48,21,30.36,30.28,30.17,10,10,10,14,6,20,0.00,0,,221
2013-12-28,57,40,22,27,24,17,85,57,28,30.14,29.94,29.76,10,10,10,31,11,40,0.00,0,,198
2013-12-29,35,25,14,19,10,7,73,56,39,30.37,30.27,30.03,10,10,10,35,17,43,0.00,3,,357
2013-12-30,52,34,15,21,16,9,80,52,24,30.37,30.23,30.09,10,10,10,22,9,28,0.00,0,,280
2013-12-31,58,42,25,21,20,19,75,49,23,30.30,30.08,29.93,10,10,10,31,13,38,0.00,0,,222